sat.trackr.live / text

‹ back to catalog

STARLINK-5398

NORAD 54866 · 2022-177AY

PAYLOAD ACTIVE UNKNOWN

§ Identity

Operator
Country
US
Launch date
2022-12-28
Launch site
AFETR
Launch vehicle
Mass (kg)
RCS (m²)

Purposes: comms

External: N2YO · Heavens-Above · Gunter

§ Orbital elements

Epoch: 2026-05-25T02:46:38.315136Z

Period
94.27 min
Inclination
43.0063°
Eccentricity
0.0001223
Mean motion
15.27577757 rev/d
Perigee alt
482.2 km
Apogee alt
483.9 km
Semi-major
6,861.2 km
B*
-7.3322e-5
RAAN
49.5643°
Arg perigee
283.9571°
Mean anomaly
76.1145°
Rev number
18,878

§ Raw data

STARLINK-53981 54866U 22177AY  26145.11572124 -.00002279  00000+0 -73322-4 0  99912 54866  43.0063  49.5643 0001223 283.9571  76.1145 15.27577757188780

JSON: /api/v1/satellites/54866 · /tle

For live sub-satellite position, see the globe view (requires WebGL).

§ Visibility from observer

Set your observer location to see the next 7 days of passes ≥ 10°. The values pass through the URL so the page stays shareable.

No JS? Fill the form by hand. The geolocation button needs JavaScript.